Regional Weather Roundup
Issued by NWS

Home | Current Version | Previous Version | Text Only | Print | Product List | Glossary Off
Versions: 1 2 3 4 5 6 7 8 9 10 11 12 13 14 15 16 17 18 19 20 21 22 23 24 25 26 27 28 29 30 31 32 33 34 35 36 37 38 39 40 41 42 43 44 45 46 47 48 49 50

000
ASUS43 KIND 051559
RWRIN

WEATHER ROUNDUP FOR INDIANA
NATIONAL WEATHER SERVICE INDIANAPOLIS IN
1200 PM EDT TUE MAY 05 2015

NOTE: "FAIR" INDICATES FEW OR NO CLOUDS BELOW 12,000 FEET WITH NO
SIGNIFICANT WEATHER AND/OR OBSTRUCTIONS TO VISIBILITY.

* - STATION DOES NOT REPORT WEATHER SUCH AS PRECIPITATION OR FOG.

+ - STATION NOT QUALITY CONTROLLED BY THE NATIONAL WEATHER SERVICE.
    USE DATA WITH CAUTION...ESPECIALLY DEWPOINT AND RELATIVE
    HUMIDITY OBSERVATIONS.

INZ001>003-010>013-019-020-051700-
NORTHWEST INDIANA

CITY           SKY/WX    TMP DP  RH WIND       PRES   REMARKS
GARY /AIRPORT/ RAIN      54 N/A N/A CALM      30.23R VSB 1
RENSSELAER +   PTSUNNY   70  64  83 SE9       30.20

$$

LMZ046-743>745-051700-
SOUTHERN LAKE MICHIGAN

STATION/POSITION TIME  TEMP    WIND        PRES    WAVE
                       AIR SEA DIR/SP/G            HT
                 (UTC) (F)     (DEG/KT/KT) (MB)    (FT)
BURNS HARBOR     1500   51      70/  7/  8 1023.4F
MICHIGAN CITY    1500   51      20/  7/  7   N/A
5NW MICH CITY    1500   51 49  120/  6/ 10   N/A     2

$$

INZ004-005-014>016-021>024-051700-
NORTH CENTRAL INDIANA

CITY           SKY/WX    TMP DP  RH WIND       PRES   REMARKS
ELKHART        CLOUDY    63  59  88 N7        30.24R FOG
GOSHEN         CLOUDY    66  62  87 SE5       30.23R
SOUTH BEND     LGT RAIN  60  58  92 NE5       30.23R FOG

$$

INZ006>009-017-018-025>027-051700-
NORTHEAST INDIANA

CITY           SKY/WX    TMP DP  RH WIND       PRES   REMARKS
ANGOLA *+      CLOUDY    54  54 100 SE8       30.26R
FORT WAYNE     CLOUDY    69  62  78 E8        30.24F

$$

INZ028-029-035-036-043>045-051>053-051700-
WEST CENTRAL INDIANA

CITY           SKY/WX    TMP DP  RH WIND       PRES   REMARKS
CRAWFORDSVL +  SUNNY     74  49  40 SW12      30.22S
GREENCASTLE +  SUNNY     75  52  43 SW7       30.24S
LAFAYETTE      MOSUNNY   73  58  59 SW7       30.21R
TERRE HAUTE    SUNNY     79  58  48 SW10      30.22F

$$

INZ030>032-037>040-046>048-054>057-064-065-051700-
CENTRAL INDIANA

CITY           SKY/WX    TMP DP  RH WIND       PRES   REMARKS
ANDERSON       SUNNY     75  50  41 SW6       30.25S
GREENWOOD *+   MOSUNNY   79  50  36 W8        30.25S
INDIANAPOLIS   MOSUNNY   77  55  46 SW14      30.23S
-EAGLE CREEK   MOSUNNY   76  55  48 VRB6      30.23S
KOKOMO *+      MOSUNNY   73  61  64 SW3       30.22S
MT COMFORT *+  MOSUNNY   79  39  24 W12       30.25S
SHELBYVILLE    PTSUNNY   79  53  40 SW9       30.24S

$$

INZ033-034-041-042-049-050-058-059-051700-
EAST CENTRAL INDIANA

CITY           SKY/WX    TMP DP  RH WIND       PRES   REMARKS
MUNCIE         MOSUNNY   74  58  57 W7        30.24S

$$

INZ060-061-067>069-081>083-085>088-051700-
SOUTHWEST INDIANA

CITY           SKY/WX    TMP DP  RH WIND       PRES   REMARKS
EVANSVILLE     SUNNY     80  54  40 S12       30.26S
HUNTINGBURG *+ SUNNY     79  57  47 SW12      30.27S

$$

INZ062-063-066-070>080-084-089>092-051700-
SOUTH CENTRAL AND SOUTHEAST INDIANA

CITY           SKY/WX    TMP DP  RH WIND       PRES   REMARKS
BLOOMINGTON    MOSUNNY   80  54  40 SW14      30.25S
MADISON *+     SUNNY     79  50  36 W8        30.29S
SEYMOUR +      SUNNY     81  57  44 SW17      30.26S

$$




USA.gov is the U.S. government's official web portal to all federal, state and local government web resources and services.